FLOCK 2E'-16

Last updated on June 2, 2018, 12:15 a.m. UTC

1 41763U 98067KK  18152.14364457  .17380796  12355-4  12196-2 0  9994
2 41763  51.6065  41.4007 0012067 257.6830 102.5693 16.39967936 97796

Satellite is not in orbit.